This demonstration page uses our WeatherBlox Daily Observations layout. Learn more.

Left ArrowRight Arrow

Hourly Observations for March 14, 2019

Temp ( °F °C ) Dew Point ( °F °C ) Humidity (%) Winds ( mph kmh ) Pressure ( in mb ) Visibility ( mi km ) Precip ( " mm )
12:35 am 00:35 Windy with Snow Likely 30 -1 28 -2 93 93 NNW 33 54 29.17 988 2 3 0.02 0.51
12:57 am 00:57 Very Windy with Snow Likely 30 -1.1 29 -1.7 96 96 NNW 40 65 29.08 985 1 2 0.02 0.51
1:23 am 01:23 Windy with Snow Likely 30 -1 28 -2 93 93 NNW 36 57 29.19 988 1 2 0.01 0.25
1:57 am 01:57 Very Windy with Snow Likely 30 -1.1 28 -2.2 92 92 NNW 38 61 29.11 986 1 1 0.02 0.51
2:57 am 02:57 Cloudy with Snow 29 -1.7 28 -2.2 96 96 NNW 43 69 29.15 987 1 1 0.01 0.25
3:10 am 03:10 Very Windy with Snow Likely 28 -2 28 -2 100 100 NNW 40 65 29.27 991 1 1 0.01 0.25
3:57 am 03:57 Windy with Snow Likely 29 -1.7 28 -2.2 96 96 NNW 35 56 29.21 989 1 2 0.01 0.25
4:12 am 04:12 Very Windy with Snow Likely 28 -2 28 -2 100 100 NNW 39 63 29.32 993 1 1 0.00 0.03
4:30 am 04:30 Cloudy with Snow 28 -2 28 -2 100 100 NNW 44 70 29.34 993 1 1 0.00 0.00
4:53 am 04:53 Windy with Snow Likely 28 -2 28 -2 100 100 NNW 33 54 29.37 994 1 1 0.00 0.00
4:57 am 04:57 Windy with Snow Likely 29 -1.7 28 -2.2 96 96 NNW 35 56 29.27 991 1 1 0.00 0.03
5:57 am 05:57 Windy with Snow Likely 30 -1.1 28 -2.2 92 92 NNW 32 52 29.34 994 1 1 0.01 0.25
6:05 am 06:05 Windy with Snow Likely 30 -1 28 -2 93 93 NNW 35 56 29.43 997 1 1 0.00 0.03
6:13 am 06:13 Windy with Snow Likely 30 -1 28 -2 93 93 NNW 32 52 29.44 997 1 2 0.00 0.03
6:39 am 06:39 Windy with Snow Likely 30 -1 28 -2 93 93 NNW 36 57 29.47 998 2 3 0.00 0.03
6:57 am 06:57 Windy with Snow Likely 30 -1.1 28 -2.2 92 92 NNW 32 52 29.41 996 2 3 0.00 0.03
7:19 am 07:19 Windy with Snow Likely 30 -1 28 -2 93 93 NNW 32 52 29.51 999 3 4 0.00 0.03
7:36 am 07:36 Windy with Snow Likely 30 -1 27 -3 86 86 NNW 35 56 29.52 1000 2 2 0.00 0.03
7:54 am 07:54 Windy with Snow Likely 30 -1 28 -2 93 93 NNW 32 52 29.54 1000 1 1 0.00 0.00
7:57 am 07:57 Windy with Snow Likely 31 -0.6 28 -2.2 89 89 NNW 33 54 29.47 998 1 1 0.00 0.03
8:05 am 08:05 Windy with Snow Likely 30 -1 28 -2 93 93 NNW 35 56 29.55 1001 1 1 0.00 0.00
8:34 am 08:34 Cloudy with Snow 30 -1 28 -2 93 93 NNW 32 52 29.58 1002 0 0 0.00 0.03
8:45 am 08:45 Windy with Snow Likely 30 -1 28 -2 93 93 NNW 29 46 29.59 1002 1 1 0.00 0.03
8:53 am 08:53 Windy with Snow Likely 30 -1 28 -2 93 93 NNW 33 54 29.59 1002 1 1 0.00 0.03
8:57 am 08:57 Windy with Snow Likely 31 -0.6 29 -1.7 92 92 NNW 33 54 29.53 1000 1 1 0.00 0.03
9:40 am 09:40 Cloudy with Light Wintry Mix 34 1 28 -2 81 81 NNW 35 56 29.60 1002 1 2 0.00 0.03
9:49 am 09:49 Cloudy with Light Rain 34 1 28 -2 81 81 NNW 31 50 29.60 1002 2 3 0.00 0.03
9:57 am 09:57 Cloudy with Light Rain 33 0.6 29 -1.7 85 85 NNW 38 61 29.55 1001 3 4 0.00 0.03
10:05 am 10:05 Cloudy with Light Rain 34 1 28 -2 81 81 NNW 33 54 29.61 1003 4 6 0.00 0.03
10:57 am 10:57 Cloudy with Light Rain 34 1.1 27 -2.8 76 76 NNW 40 65 29.60 1002 10 16 0.00 0.03
11:57 am 11:57 Cloudy 35 1.7 27 -2.8 72 72 NNW 37 59 29.67 1005 10 16 0.00 0.03
12:57 pm 12:57 Cloudy 34 1.1 27 -2.8 76 76 NNW 38 61 29.74 1007 10 16 0.00 0.00
1:57 pm 13:57 Cloudy 34 1.1 27 -2.8 76 76 NNW 30 48 29.82 1010 10 16 0.00 0.00
2:57 pm 14:57 Cloudy 34 1.1 26 -3.3 73 73 NNW 28 44 29.86 1011 10 16 0.00 0.00
3:57 pm 15:57 Cloudy 36 2.2 26 -3.3 67 67 NNW 36 57 29.88 1012 10 16 0.00 0.00
4:06 pm 16:06 Cloudy 36 2 27 -3 70 70 NNW 30 48 29.92 1013 10 16 0.00 0.00
4:57 pm 16:57 Mostly Sunny 36 2.2 25 -3.9 64 64 NNW 32 52 29.96 1015 10 16 0.00 0.00
5:57 pm 17:57 Sunny 36 2.2 23 -5 59 59 NNW 35 56 30.02 1017 10 16 0.00 0.00
6:57 pm 18:57 Sunny 36 2.2 23 -5 59 59 NNW 33 54 30.05 1018 10 16 0.00 0.00
7:57 pm 19:57 Clear 34 1.1 23 -5 64 64 NNW 22 35 30.11 1020 10 16 0.00 0.00
8:57 pm 20:57 Clear 33 0.6 22 -5.6 64 64 NNW 18 30 30.16 1021 10 16 0.00 0.00
9:57 pm 21:57 Clear 33 0.6 21 -6.1 61 61 NW 23 37 30.19 1022 10 16 0.00 0.00
10:57 pm 22:57 Clear 32 0 23 -5 69 69 NW 18 30 30.22 1023 10 16 0.00 0.00
11:57 pm 23:57 Clear 32 0 23 -5 69 69 NW 18 30 30.24 1024 10 16 0.00 0.00

Powered by AerisWeather